Location: Recife
(8.0585°S, 34.8848°W)
Time: 13:18:49
(UTC-03:00)

Vanguard 2 - Pass Details

Date: 19 April 2026
Orbit: 553 x 2895 km, 32.9° (Epoch: 13 May)

Event Time Altitude Azimuth Distance (km) Brightness Sun altitude
Exits shadow 04:39:45 - 234° (SW) 5,626 11.4 -11.0°
Reaches altitude 10° 04:41:24 10° 234° (SW) 5,179 11.2 -10.6°
Maximum altitude 04:55:40 81° 147° (SSE) 1,777 9.4 -7.2°
Drops below altitude 10° 05:04:03 10° 60° (ENE) 3,207 12.2 -5.1°
Sets 05:06:19 0° 59° (ENE) 3,929 12.8 -4.6°
